Year,Month,Day,Hour,Minute,Value (Times are PST for temperature in C)
2015,06,19,02,37,13.80
2015,06,19,02,38,13.80
2015,06,19,02,39,13.80
2015,06,19,02,40,13.70
2015,06,19,02,41,13.70
2015,06,19,02,42,13.70
2015,06,19,02,43,13.70
2015,06,19,02,44,13.70
2015,06,19,02,45,13.70
2015,06,19,02,46,13.70
2015,06,19,02,47,13.70
2015,06,19,02,48,13.70
2015,06,19,02,49,13.70
2015,06,19,02,50,13.70
2015,06,19,02,51,13.70
2015,06,19,02,52,13.70
2015,06,19,02,53,13.60
2015,06,19,02,54,13.60
2015,06,19,02,55,13.60
2015,06,19,02,56,13.60
2015,06,19,02,57,13.60
2015,06,19,02,58,13.60
2015,06,19,02,59,13.50
2015,06,19,03,00,13.50
2015,06,19,03,01,13.60
2015,06,19,03,02,13.60
2015,06,19,03,03,13.60
2015,06,19,03,04,13.60
2015,06,19,03,05,13.60
2015,06,19,03,06,13.60
2015,06,19,03,07,13.60
2015,06,19,03,08,13.60
2015,06,19,03,09,13.60
2015,06,19,03,10,13.60
2015,06,19,03,11,13.60
2015,06,19,03,12,13.60
2015,06,19,03,13,13.50
2015,06,19,03,14,13.50
2015,06,19,03,15,13.50
2015,06,19,03,16,13.50
2015,06,19,03,17,13.50
2015,06,19,03,18,13.50
2015,06,19,03,19,13.50
2015,06,19,03,20,13.50
2015,06,19,03,21,13.50
2015,06,19,03,22,13.50
2015,06,19,03,23,13.50
2015,06,19,03,24,13.50
2015,06,19,03,25,13.50
2015,06,19,03,26,13.50
2015,06,19,03,27,13.50
2015,06,19,03,28,13.40
2015,06,19,03,29,13.40
2015,06,19,03,30,13.40
2015,06,19,03,31,13.40
2015,06,19,03,32,13.40
2015,06,19,03,33,13.40
2015,06,19,03,34,13.40
2015,06,19,03,35,13.40
2015,06,19,03,36,13.40
2015,06,19,03,37,13.40
2015,06,19,03,38,13.40
2015,06,19,03,39,13.40
2015,06,19,03,40,13.40
2015,06,19,03,41,13.40
2015,06,19,03,42,13.40
2015,06,19,03,43,13.40
2015,06,19,03,44,13.40
2015,06,19,03,45,13.40
2015,06,19,03,46,13.40
2015,06,19,03,47,13.40
2015,06,19,03,48,13.40
2015,06,19,03,49,13.40
2015,06,19,03,50,13.40
2015,06,19,03,51,13.40
2015,06,19,03,52,13.40
2015,06,19,03,53,13.40
2015,06,19,03,54,13.40
2015,06,19,03,55,13.40
2015,06,19,03,56,13.40
2015,06,19,03,57,13.30
2015,06,19,03,58,13.30
2015,06,19,03,59,13.30
2015,06,19,04,00,13.30
2015,06,19,04,01,13.30
2015,06,19,04,02,13.30
2015,06,19,04,03,13.30
2015,06,19,04,04,13.30
2015,06,19,04,05,13.30
2015,06,19,04,06,13.30
2015,06,19,04,07,13.30
2015,06,19,04,08,13.30
2015,06,19,04,09,13.30
2015,06,19,04,10,13.30
2015,06,19,04,11,13.30
2015,06,19,04,12,13.30
2015,06,19,04,13,13.30
2015,06,19,04,14,13.30
2015,06,19,04,15,13.30
2015,06,19,04,16,13.30
2015,06,19,04,17,13.30
2015,06,19,04,18,13.30
2015,06,19,04,19,13.30
2015,06,19,04,20,13.30
2015,06,19,04,21,13.30
2015,06,19,04,22,13.30
2015,06,19,04,23,13.30
2015,06,19,04,24,13.30
2015,06,19,04,25,13.30
2015,06,19,04,26,13.30
2015,06,19,04,27,13.30
2015,06,19,04,28,13.30
2015,06,19,04,29,13.20
2015,06,19,04,30,13.20
2015,06,19,04,31,13.20
2015,06,19,04,32,13.20
2015,06,19,04,33,13.20
2015,06,19,04,34,13.20
2015,06,19,04,35,13.20
2015,06,19,04,36,13.20
2015,06,19,04,37,13.20
2015,06,19,04,38,13.20
2015,06,19,04,39,13.20
2015,06,19,04,40,13.20
2015,06,19,04,41,13.20
2015,06,19,04,42,13.20
2015,06,19,04,43,13.20
2015,06,19,04,44,13.20
2015,06,19,04,45,13.20
2015,06,19,04,46,13.20
2015,06,19,04,47,13.20
2015,06,19,04,48,13.20
2015,06,19,04,49,13.20
2015,06,19,04,50,13.10
2015,06,19,04,51,13.10
2015,06,19,04,52,13.10
2015,06,19,04,53,13.10
2015,06,19,04,54,13.10
2015,06,19,04,55,13.10
2015,06,19,04,56,13.10
2015,06,19,04,57,13.00
2015,06,19,04,58,13.00
2015,06,19,04,59,13.00
2015,06,19,05,00,13.00
2015,06,19,05,01,13.00
2015,06,19,05,02,13.00
2015,06,19,05,03,13.00
2015,06,19,05,04,13.00
2015,06,19,05,05,13.00
2015,06,19,05,06,13.00
2015,06,19,05,07,13.00
2015,06,19,05,08,13.00
2015,06,19,05,09,13.00
2015,06,19,05,10,13.00
2015,06,19,05,11,13.00
2015,06,19,05,12,12.90
2015,06,19,05,13,12.90
2015,06,19,05,14,12.90
2015,06,19,05,15,12.80
2015,06,19,05,16,12.80
2015,06,19,05,17,12.80
2015,06,19,05,18,12.80
2015,06,19,05,19,12.80
2015,06,19,05,20,12.80
2015,06,19,05,21,12.80
2015,06,19,05,22,12.80
2015,06,19,05,23,12.80
2015,06,19,05,24,12.80
2015,06,19,05,25,12.80
2015,06,19,05,26,12.80
2015,06,19,05,27,12.80
2015,06,19,05,28,12.80
2015,06,19,05,29,12.80
2015,06,19,05,30,12.80
2015,06,19,05,31,12.80
2015,06,19,05,32,12.80
2015,06,19,05,33,12.80
2015,06,19,05,34,12.80
2015,06,19,05,35,12.80
2015,06,19,05,36,12.80
2015,06,19,05,37,12.80
2015,06,19,05,38,12.80
2015,06,19,05,39,12.80
2015,06,19,05,40,12.80
2015,06,19,05,41,12.80
2015,06,19,05,42,12.80
2015,06,19,05,43,12.80
2015,06,19,05,44,12.80
2015,06,19,05,45,12.80
2015,06,19,05,46,12.80
2015,06,19,05,47,12.80
2015,06,19,05,48,12.80
2015,06,19,05,49,12.80
2015,06,19,05,50,12.80
2015,06,19,05,51,12.80
2015,06,19,05,52,12.70
2015,06,19,05,53,12.70
2015,06,19,05,54,12.70
2015,06,19,05,55,12.70
2015,06,19,05,56,12.70
2015,06,19,05,57,12.70
2015,06,19,05,58,12.70
2015,06,19,05,59,12.80
2015,06,19,06,00,12.80
2015,06,19,06,01,12.80
2015,06,19,06,02,12.80
2015,06,19,06,03,12.80
2015,06,19,06,04,12.80
2015,06,19,06,05,12.80
2015,06,19,06,06,12.80
2015,06,19,06,07,12.80
2015,06,19,06,08,12.80
2015,06,19,06,09,12.80
2015,06,19,06,10,12.80
2015,06,19,06,11,12.80
2015,06,19,06,12,12.80
2015,06,19,06,13,12.80
2015,06,19,06,14,12.80
2015,06,19,06,15,12.80
2015,06,19,06,16,12.80
2015,06,19,06,17,12.80
2015,06,19,06,18,12.80
2015,06,19,06,19,12.80
2015,06,19,06,20,12.80
2015,06,19,06,21,12.80
2015,06,19,06,22,12.80
2015,06,19,06,23,12.80
2015,06,19,06,24,12.80
2015,06,19,06,25,12.90
2015,06,19,06,26,12.90
2015,06,19,06,27,12.90
2015,06,19,06,28,12.90
2015,06,19,06,29,12.90
2015,06,19,06,30,12.90
2015,06,19,06,31,13.00
2015,06,19,06,32,13.00
2015,06,19,06,33,13.00
2015,06,19,06,34,13.00
2015,06,19,06,35,13.00
2015,06,19,06,36,13.00
2015,06,19,06,37,13.00
2015,06,19,06,38,13.00
2015,06,19,06,39,13.10
2015,06,19,06,40,13.10
2015,06,19,06,41,13.10
2015,06,19,06,42,13.10
2015,06,19,06,43,13.20
2015,06,19,06,44,13.20
2015,06,19,06,45,13.20
2015,06,19,06,46,13.20
2015,06,19,06,47,13.20
2015,06,19,06,48,13.20
2015,06,19,06,49,13.30
2015,06,19,06,50,13.30
2015,06,19,06,51,13.30
2015,06,19,06,52,13.30
2015,06,19,06,53,13.30
2015,06,19,06,54,13.30
2015,06,19,06,55,13.30
2015,06,19,06,56,13.30
2015,06,19,06,57,13.30
2015,06,19,06,58,13.30
2015,06,19,06,59,13.30
2015,06,19,07,00,13.30
2015,06,19,07,01,13.40
2015,06,19,07,02,13.40
2015,06,19,07,03,13.40
2015,06,19,07,04,13.40
2015,06,19,07,05,13.50
2015,06,19,07,06,13.50
2015,06,19,07,07,13.50
2015,06,19,07,08,13.50
2015,06,19,07,09,13.50
2015,06,19,07,10,13.50
2015,06,19,07,11,13.50
2015,06,19,07,12,13.60
2015,06,19,07,13,13.60
2015,06,19,07,14,13.60
2015,06,19,07,15,13.60
2015,06,19,07,16,13.60
2015,06,19,07,17,13.60
2015,06,19,07,18,13.60
2015,06,19,07,19,13.70
2015,06,19,07,20,13.70
2015,06,19,07,21,13.70
2015,06,19,07,22,13.70
2015,06,19,07,23,13.70
2015,06,19,07,24,13.70
2015,06,19,07,25,13.70
2015,06,19,07,26,13.70
2015,06,19,07,27,13.70
2015,06,19,07,28,13.70
2015,06,19,07,29,13.70
2015,06,19,07,30,13.70
2015,06,19,07,31,13.80
2015,06,19,07,32,13.80
2015,06,19,07,33,13.90
2015,06,19,07,34,13.90
2015,06,19,07,35,13.90
2015,06,19,07,36,13.90
2015,06,19,07,37,13.90
2015,06,19,07,38,13.90
2015,06,19,07,39,14.00
2015,06,19,07,40,14.00
2015,06,19,07,41,14.00
2015,06,19,07,42,14.00
2015,06,19,07,43,14.00
2015,06,19,07,44,14.00
2015,06,19,07,45,14.00
2015,06,19,07,46,14.10
2015,06,19,07,47,14.20
2015,06,19,07,48,14.20
2015,06,19,07,49,14.20
2015,06,19,07,50,14.20
2015,06,19,07,51,14.20
2015,06,19,07,52,14.20
2015,06,19,07,53,14.30
2015,06,19,07,54,14.30
2015,06,19,07,55,14.40
2015,06,19,07,56,14.30
2015,06,19,07,57,14.30
2015,06,19,07,58,14.20
2015,06,19,07,59,14.30
2015,06,19,08,00,14.30
2015,06,19,08,01,14.30
2015,06,19,08,02,14.30
2015,06,19,08,03,14.30
2015,06,19,08,04,14.20
2015,06,19,08,05,14.20
2015,06,19,08,06,14.20
2015,06,19,08,07,14.20
2015,06,19,08,08,14.20
2015,06,19,08,09,14.20
2015,06,19,08,10,14.20
2015,06,19,08,11,14.20
2015,06,19,08,12,14.20
2015,06,19,08,13,14.20
2015,06,19,08,14,14.30
2015,06,19,08,15,14.40
2015,06,19,08,16,14.40
2015,06,19,08,17,14.40
2015,06,19,08,18,14.50
2015,06,19,08,19,14.50
2015,06,19,08,20,14.60
2015,06,19,08,21,14.60
2015,06,19,08,22,14.60
2015,06,19,08,23,14.70
2015,06,19,08,24,14.60
2015,06,19,08,25,14.60
2015,06,19,08,26,14.60
2015,06,19,08,27,14.60
2015,06,19,08,28,14.70
2015,06,19,08,29,14.70
2015,06,19,08,30,14.70
2015,06,19,08,31,14.70
2015,06,19,08,32,14.80
2015,06,19,08,33,14.80
2015,06,19,08,34,14.90
2015,06,19,08,35,14.90
2015,06,19,08,36,14.90
2015,06,19,08,37,15.00
2015,06,19,08,38,15.00
2015,06,19,08,39,15.00
2015,06,19,08,40,15.00
2015,06,19,08,41,15.00
2015,06,19,08,42,15.00
2015,06,19,08,43,15.10
2015,06,19,08,44,15.10
2015,06,19,08,45,15.10
2015,06,19,08,46,15.10
2015,06,19,08,47,15.20
2015,06,19,08,48,15.20
2015,06,19,08,49,15.20
2015,06,19,08,50,15.20
2015,06,19,08,51,15.20
2015,06,19,08,52,15.20
2015,06,19,08,53,15.20
2015,06,19,08,54,15.20
2015,06,19,08,55,15.20
2015,06,19,08,56,15.30
2015,06,19,08,57,15.30
2015,06,19,08,58,15.30
2015,06,19,08,59,15.30
2015,06,19,09,00,15.30
2015,06,19,09,01,15.40
2015,06,19,09,02,15.40
2015,06,19,09,03,15.40
2015,06,19,09,04,15.30
2015,06,19,09,05,15.30
2015,06,19,09,06,15.40
2015,06,19,09,07,15.40
2015,06,19,09,08,15.40
2015,06,19,09,09,15.40
2015,06,19,09,10,15.30
2015,06,19,09,11,15.30
2015,06,19,09,12,15.30
2015,06,19,09,13,15.30
2015,06,19,09,14,15.30
2015,06,19,09,15,15.30
2015,06,19,09,16,15.30
2015,06,19,09,17,15.30
2015,06,19,09,18,15.40
2015,06,19,09,19,15.40
2015,06,19,09,20,15.40
2015,06,19,09,21,15.40
2015,06,19,09,22,15.40
2015,06,19,09,23,15.50
2015,06,19,09,24,15.50
2015,06,19,09,25,15.60
2015,06,19,09,26,15.60
2015,06,19,09,27,15.70
2015,06,19,09,28,15.80
2015,06,19,09,29,15.80
2015,06,19,09,30,15.80
2015,06,19,09,31,15.80
2015,06,19,09,32,15.80
2015,06,19,09,33,15.70
2015,06,19,09,34,15.60
2015,06,19,09,35,15.60
2015,06,19,09,36,15.50
2015,06,19,09,37,15.50
2015,06,19,09,38,15.50
2015,06,19,09,39,15.60
2015,06,19,09,40,15.60
2015,06,19,09,41,15.70
2015,06,19,09,42,15.80
2015,06,19,09,43,15.80
2015,06,19,09,44,15.80
2015,06,19,09,45,15.80
2015,06,19,09,46,15.70
2015,06,19,09,47,15.60
2015,06,19,09,48,15.60
2015,06,19,09,49,15.60
2015,06,19,09,50,15.60
2015,06,19,09,51,15.60
2015,06,19,09,52,15.70
2015,06,19,09,53,15.80
2015,06,19,09,54,15.80
2015,06,19,09,55,15.80
2015,06,19,09,56,15.80
2015,06,19,09,57,15.80
2015,06,19,09,58,15.70
2015,06,19,09,59,15.80
2015,06,19,10,00,15.80
2015,06,19,10,01,15.80
2015,06,19,10,02,15.80
2015,06,19,10,03,15.80
2015,06,19,10,04,15.80
2015,06,19,10,05,15.80
2015,06,19,10,06,15.80
2015,06,19,10,07,15.70
2015,06,19,10,08,15.70
2015,06,19,10,09,15.70
2015,06,19,10,10,15.70
2015,06,19,10,11,15.80
2015,06,19,10,12,15.80
2015,06,19,10,13,15.90
2015,06,19,10,14,16.00
2015,06,19,10,15,16.10
2015,06,19,10,16,16.10
2015,06,19,10,17,16.10
2015,06,19,10,18,16.10
2015,06,19,10,19,16.10
2015,06,19,10,20,16.10
2015,06,19,10,21,16.10
2015,06,19,10,22,16.10
2015,06,19,10,23,16.10
2015,06,19,10,24,16.20
2015,06,19,10,25,16.20
2015,06,19,10,26,16.20
2015,06,19,10,27,16.30
2015,06,19,10,28,16.30
2015,06,19,10,29,16.30
2015,06,19,10,30,16.30
2015,06,19,10,31,16.30
2015,06,19,10,32,16.30
2015,06,19,10,33,16.30
2015,06,19,10,34,16.30
2015,06,19,10,35,16.30
2015,06,19,10,36,16.30
2015,06,19,10,37,16.30
2015,06,19,10,38,16.40
2015,06,19,10,39,16.50
2015,06,19,10,40,16.60
2015,06,19,10,41,16.60
2015,06,19,10,42,16.60
2015,06,19,10,43,16.70
2015,06,19,10,44,16.70
2015,06,19,10,45,16.70
2015,06,19,10,46,16.70
2015,06,19,10,47,16.80
2015,06,19,10,48,16.90
2015,06,19,10,49,16.90
2015,06,19,10,50,16.90
2015,06,19,10,51,16.90
2015,06,19,10,52,16.80
2015,06,19,10,53,16.70
2015,06,19,10,54,16.70
2015,06,19,10,55,16.80
2015,06,19,10,56,16.80
2015,06,19,10,57,16.80
2015,06,19,10,58,16.90
2015,06,19,10,59,16.80
2015,06,19,11,00,16.80
2015,06,19,11,01,16.70
2015,06,19,11,02,16.70
2015,06,19,11,03,16.70
2015,06,19,11,04,16.70
2015,06,19,11,05,16.70
2015,06,19,11,06,16.70
2015,06,19,11,07,16.70
2015,06,19,11,08,16.70
2015,06,19,11,09,16.90
2015,06,19,11,10,17.00
2015,06,19,11,11,17.10
2015,06,19,11,12,17.20
2015,06,19,11,13,17.20
2015,06,19,11,14,17.20
2015,06,19,11,15,17.20
2015,06,19,11,16,17.30
2015,06,19,11,17,17.30
2015,06,19,11,18,17.30
2015,06,19,11,19,17.30
2015,06,19,11,20,17.20
2015,06,19,11,21,17.20
2015,06,19,11,22,17.10
2015,06,19,11,23,17.20
2015,06,19,11,24,17.20
2015,06,19,11,25,17.20
2015,06,19,11,26,17.10
2015,06,19,11,27,17.10
2015,06,19,11,28,17.10
2015,06,19,11,29,17.10
2015,06,19,11,30,17.20
2015,06,19,11,31,17.20
2015,06,19,11,32,17.30
2015,06,19,11,33,17.30
2015,06,19,11,34,17.30
2015,06,19,11,35,17.30
2015,06,19,11,36,17.30
2015,06,19,11,37,17.30
2015,06,19,11,38,17.30
2015,06,19,11,39,17.30
2015,06,19,11,40,17.40
2015,06,19,11,41,17.40
2015,06,19,11,42,17.40
2015,06,19,11,43,17.40
2015,06,19,11,44,17.40
2015,06,19,11,45,17.50
2015,06,19,11,46,17.50
2015,06,19,11,47,17.50
2015,06,19,11,48,17.40
2015,06,19,11,49,17.40
2015,06,19,11,50,17.30
2015,06,19,11,51,17.30
2015,06,19,11,52,17.30
2015,06,19,11,53,17.30
2015,06,19,11,54,17.30
2015,06,19,11,55,17.20
2015,06,19,11,56,17.20
2015,06,19,11,57,17.30
2015,06,19,11,58,17.30
2015,06,19,11,59,17.40
2015,06,19,12,00,17.50
2015,06,19,12,01,17.50
2015,06,19,12,02,17.50
2015,06,19,12,03,17.40
2015,06,19,12,04,17.40
2015,06,19,12,05,17.40
2015,06,19,12,06,17.40
2015,06,19,12,07,17.50
2015,06,19,12,08,17.50
2015,06,19,12,09,17.60
2015,06,19,12,10,17.60
2015,06,19,12,11,17.70
2015,06,19,12,12,17.80
2015,06,19,12,13,17.90
2015,06,19,12,14,17.90
2015,06,19,12,15,18.00
2015,06,19,12,16,18.10
2015,06,19,12,17,18.10
2015,06,19,12,18,18.20
2015,06,19,12,19,18.20
2015,06,19,12,20,18.20
2015,06,19,12,21,18.20
2015,06,19,12,22,18.20
2015,06,19,12,23,18.20
2015,06,19,12,24,18.10
2015,06,19,12,25,17.90
2015,06,19,12,26,17.90
2015,06,19,12,27,17.90
2015,06,19,12,28,17.90
2015,06,19,12,29,17.90
2015,06,19,12,30,17.90
2015,06,19,12,31,17.80
2015,06,19,12,32,17.80
2015,06,19,12,33,17.90
2015,06,19,12,34,18.00
2015,06,19,12,35,18.10
2015,06,19,12,36,18.20
2015,06,19,12,37,18.20
2015,06,19,12,38,18.20
2015,06,19,12,39,18.20
2015,06,19,12,40,18.30
2015,06,19,12,41,18.40
2015,06,19,12,42,18.40
2015,06,19,12,43,18.40
2015,06,19,12,44,18.40
2015,06,19,12,45,18.40
2015,06,19,12,46,18.50
2015,06,19,12,47,18.50
2015,06,19,12,48,18.60
2015,06,19,12,49,18.60
2015,06,19,12,50,18.50
2015,06,19,12,51,18.60
2015,06,19,12,52,18.60
2015,06,19,12,53,18.70
2015,06,19,12,54,18.70
2015,06,19,12,55,18.70
2015,06,19,12,56,18.70
2015,06,19,12,57,18.70
2015,06,19,12,58,18.80
2015,06,19,12,59,18.80
2015,06,19,13,00,18.80
2015,06,19,13,01,18.90
2015,06,19,13,02,18.90
2015,06,19,13,03,18.90
2015,06,19,13,04,18.90
2015,06,19,13,05,18.90
2015,06,19,13,06,18.90
2015,06,19,13,07,18.90
2015,06,19,13,08,19.00
2015,06,19,13,09,19.10
2015,06,19,13,10,19.10
2015,06,19,13,11,19.10
2015,06,19,13,12,19.20
2015,06,19,13,13,19.20
2015,06,19,13,14,19.30
2015,06,19,13,15,19.30
2015,06,19,13,16,19.40
2015,06,19,13,17,19.40
2015,06,19,13,18,19.40
2015,06,19,13,19,19.20
2015,06,19,13,20,19.10
2015,06,19,13,21,19.20
2015,06,19,13,22,19.20
2015,06,19,13,23,19.20
2015,06,19,13,24,19.20
2015,06,19,13,25,19.10
2015,06,19,13,26,19.10
2015,06,19,13,27,19.10
2015,06,19,13,28,19.10
2015,06,19,13,29,19.10
2015,06,19,13,30,19.10
2015,06,19,13,31,19.10
2015,06,19,13,32,19.10
2015,06,19,13,33,19.10
2015,06,19,13,34,19.20
2015,06,19,13,35,19.20
2015,06,19,13,36,19.20
2015,06,19,13,37,19.30
2015,06,19,13,38,19.20
2015,06,19,13,39,19.20
2015,06,19,13,40,19.30
2015,06,19,13,41,19.30
2015,06,19,13,42,19.40
2015,06,19,13,43,19.40
2015,06,19,13,44,19.40
2015,06,19,13,45,19.30
2015,06,19,13,46,19.30
2015,06,19,13,47,19.40
2015,06,19,13,48,19.50
2015,06,19,13,49,19.60
2015,06,19,13,50,19.50
2015,06,19,13,51,19.50
2015,06,19,13,52,19.50
2015,06,19,13,53,19.50
2015,06,19,13,54,19.60
2015,06,19,13,55,19.80
2015,06,19,13,56,19.90
2015,06,19,13,57,20.00
2015,06,19,13,58,20.10
2015,06,19,13,59,20.20
2015,06,19,14,00,20.20
2015,06,19,14,01,20.10
2015,06,19,14,02,19.90
2015,06,19,14,03,20.00
2015,06,19,14,04,20.10
2015,06,19,14,05,20.00
2015,06,19,14,06,19.90
2015,06,19,14,07,19.90
2015,06,19,14,08,19.90
2015,06,19,14,09,19.90
2015,06,19,14,10,19.90
2015,06,19,14,11,19.90
2015,06,19,14,12,19.70
2015,06,19,14,13,19.80
2015,06,19,14,14,19.80
2015,06,19,14,15,19.90
2015,06,19,14,16,19.90
2015,06,19,14,17,19.80
2015,06,19,14,18,19.80
2015,06,19,14,19,19.80
2015,06,19,14,20,19.90
2015,06,19,14,21,20.00
2015,06,19,14,22,20.10
2015,06,19,14,23,20.10
2015,06,19,14,24,20.20
2015,06,19,14,25,20.30
2015,06,19,14,26,20.40
2015,06,19,14,27,20.40
2015,06,19,14,28,20.60
2015,06,19,14,29,20.70
2015,06,19,14,30,20.70
2015,06,19,14,31,20.70
2015,06,19,14,32,20.60
2015,06,19,14,33,20.70
2015,06,19,14,34,20.70
2015,06,19,14,35,20.70
2015,06,19,14,36,20.70
2015,06,19,14,37,20.60
2015,06,19,14,38,20.50
2015,06,19,14,39,20.50
2015,06,19,14,40,20.50
2015,06,19,14,41,20.40
2015,06,19,14,42,20.40
2015,06,19,14,43,20.50
2015,06,19,14,44,20.50
2015,06,19,14,45,20.60
2015,06,19,14,46,20.60
2015,06,19,14,47,20.50
2015,06,19,14,48,20.50
2015,06,19,14,49,20.40
2015,06,19,14,50,20.20
2015,06,19,14,51,20.10
2015,06,19,14,52,20.10
2015,06,19,14,53,20.10
2015,06,19,14,54,20.10
2015,06,19,14,55,20.10
2015,06,19,14,56,20.20
2015,06,19,14,57,20.20
2015,06,19,14,58,20.40
2015,06,19,14,59,20.60
2015,06,19,15,00,20.70
2015,06,19,15,01,20.70
2015,06,19,15,02,20.90
2015,06,19,15,03,21.00
2015,06,19,15,04,21.00
2015,06,19,15,05,21.00
2015,06,19,15,06,21.00
2015,06,19,15,07,20.90
2015,06,19,15,08,20.80
2015,06,19,15,09,20.80
2015,06,19,15,10,20.80
2015,06,19,15,11,20.80
2015,06,19,15,12,20.80
2015,06,19,15,13,20.90
2015,06,19,15,14,21.00
2015,06,19,15,15,21.00
2015,06,19,15,16,20.80
2015,06,19,15,17,20.80
2015,06,19,15,18,20.70
2015,06,19,15,19,20.60
2015,06,19,15,20,20.60
2015,06,19,15,21,20.70
2015,06,19,15,22,20.80
2015,06,19,15,23,21.00
2015,06,19,15,24,21.10
2015,06,19,15,25,21.20
2015,06,19,15,26,21.10
2015,06,19,15,27,21.10
2015,06,19,15,28,21.10
2015,06,19,15,29,21.00
2015,06,19,15,30,21.00
2015,06,19,15,31,21.00
2015,06,19,15,32,21.00
2015,06,19,15,33,21.10
2015,06,19,15,34,21.10
2015,06,19,15,35,21.10
2015,06,19,15,36,21.20
2015,06,19,15,37,21.20
2015,06,19,15,38,21.20
2015,06,19,15,39,21.10
2015,06,19,15,40,21.00
2015,06,19,15,41,21.00
2015,06,19,15,42,21.00
2015,06,19,15,43,20.90
2015,06,19,15,44,20.90
2015,06,19,15,45,20.90
2015,06,19,15,46,20.80
2015,06,19,15,47,20.80
2015,06,19,15,48,20.80
2015,06,19,15,49,20.90
2015,06,19,15,50,20.90
2015,06,19,15,51,21.00
2015,06,19,15,52,21.10
2015,06,19,15,53,21.20
2015,06,19,15,54,21.20
2015,06,19,15,55,21.20
2015,06,19,15,56,21.20
2015,06,19,15,57,21.20
2015,06,19,15,58,21.20
2015,06,19,15,59,21.20
2015,06,19,16,00,21.10
2015,06,19,16,01,21.10
2015,06,19,16,02,21.10
2015,06,19,16,03,21.00
2015,06,19,16,04,21.00
2015,06,19,16,05,20.90
2015,06,19,16,06,20.90
2015,06,19,16,07,20.90
2015,06,19,16,08,20.90
2015,06,19,16,09,20.90
2015,06,19,16,10,20.90
2015,06,19,16,11,20.90
2015,06,19,16,12,20.90
2015,06,19,16,13,21.00
2015,06,19,16,14,21.00
2015,06,19,16,15,21.00
2015,06,19,16,16,20.90
2015,06,19,16,17,20.90
2015,06,19,16,18,21.00
2015,06,19,16,19,21.00
2015,06,19,16,20,21.10
2015,06,19,16,21,21.30
2015,06,19,16,22,21.30
2015,06,19,16,23,21.50
2015,06,19,16,24,21.60
2015,06,19,16,25,21.60
2015,06,19,16,26,21.60
2015,06,19,16,27,21.60
2015,06,19,16,28,21.40
2015,06,19,16,29,21.40
2015,06,19,16,30,21.40
2015,06,19,16,31,21.30
2015,06,19,16,32,21.30
2015,06,19,16,33,21.20
2015,06,19,16,34,21.20
2015,06,19,16,35,21.20
2015,06,19,16,36,21.20
2015,06,19,16,37,21.20
2015,06,19,16,38,21.20
2015,06,19,16,39,21.20
2015,06,19,16,40,21.10
2015,06,19,16,41,21.10
2015,06,19,16,42,21.10
2015,06,19,16,43,21.10
2015,06,19,16,44,21.10
2015,06,19,16,45,21.10
2015,06,19,16,46,21.10
2015,06,19,16,47,21.10
2015,06,19,16,48,21.10
2015,06,19,16,49,21.30
2015,06,19,16,50,21.30
2015,06,19,16,51,21.30
2015,06,19,16,52,21.30
2015,06,19,16,53,21.30
2015,06,19,16,54,21.40
2015,06,19,16,55,21.40
2015,06,19,16,56,21.40
2015,06,19,16,57,21.40
2015,06,19,16,58,21.40
2015,06,19,16,59,21.30
2015,06,19,17,00,21.30
2015,06,19,17,01,21.30
2015,06,19,17,02,21.30
2015,06,19,17,03,21.30
2015,06,19,17,04,21.30
2015,06,19,17,05,21.30
2015,06,19,17,06,21.30
2015,06,19,17,07,21.20
2015,06,19,17,08,21.20
2015,06,19,17,09,21.20
2015,06,19,17,10,21.20
2015,06,19,17,11,21.20
2015,06,19,17,12,21.20
2015,06,19,17,13,21.20
2015,06,19,17,14,21.20
2015,06,19,17,15,21.20
2015,06,19,17,16,21.20
2015,06,19,17,17,21.30
2015,06,19,17,18,21.20
2015,06,19,17,19,21.20
2015,06,19,17,20,21.30
2015,06,19,17,21,21.30
2015,06,19,17,22,21.30
2015,06,19,17,23,21.40
2015,06,19,17,24,21.40
2015,06,19,17,25,21.40
2015,06,19,17,26,21.40
2015,06,19,17,27,21.40
2015,06,19,17,28,21.40
2015,06,19,17,29,21.40
2015,06,19,17,30,21.60
2015,06,19,17,31,21.60
2015,06,19,17,32,21.60
2015,06,19,17,33,21.50
2015,06,19,17,34,21.40
2015,06,19,17,35,21.40
2015,06,19,17,36,21.40
2015,06,19,17,37,21.30
2015,06,19,17,38,21.30
2015,06,19,17,39,21.30
2015,06,19,17,40,21.50
2015,06,19,17,41,21.60
2015,06,19,17,42,21.60
2015,06,19,17,43,21.60
2015,06,19,17,44,21.70
2015,06,19,17,45,21.70
2015,06,19,17,46,21.70
2015,06,19,17,47,21.70
2015,06,19,17,48,21.60
2015,06,19,17,49,21.60
2015,06,19,17,50,21.40
2015,06,19,17,51,21.30
2015,06,19,17,52,21.30
2015,06,19,17,53,21.20
2015,06,19,17,54,21.10
2015,06,19,17,55,21.10
2015,06,19,17,56,21.10
2015,06,19,17,57,21.10
2015,06,19,17,58,21.00
2015,06,19,17,59,20.80
2015,06,19,18,00,20.90
2015,06,19,18,01,20.90
2015,06,19,18,02,20.90
2015,06,19,18,03,20.90
2015,06,19,18,04,20.80
2015,06,19,18,05,20.80
2015,06,19,18,06,20.70
2015,06,19,18,07,20.60
2015,06,19,18,08,20.50
2015,06,19,18,09,20.50
2015,06,19,18,10,20.50
2015,06,19,18,11,20.60
2015,06,19,18,12,20.70
2015,06,19,18,13,20.70
2015,06,19,18,14,20.70
2015,06,19,18,15,20.70
2015,06,19,18,16,20.70
2015,06,19,18,17,20.70
2015,06,19,18,18,20.70
2015,06,19,18,19,20.60
2015,06,19,18,20,20.70
2015,06,19,18,21,20.70
2015,06,19,18,22,20.70
2015,06,19,18,23,20.70
2015,06,19,18,24,20.70
2015,06,19,18,25,20.70
2015,06,19,18,26,20.80
2015,06,19,18,27,20.80
2015,06,19,18,28,20.90
2015,06,19,18,29,20.90
2015,06,19,18,30,20.90
2015,06,19,18,31,20.90
2015,06,19,18,32,20.90
2015,06,19,18,33,20.80
2015,06,19,18,34,20.80
2015,06,19,18,35,20.70
2015,06,19,18,36,20.60
2015,06,19,18,37,20.60
2015,06,19,18,38,20.60
2015,06,19,18,39,20.60
2015,06,19,18,40,20.60
2015,06,19,18,41,20.60
2015,06,19,18,42,20.60
2015,06,19,18,43,20.60
2015,06,19,18,44,20.60
2015,06,19,18,45,20.70
2015,06,19,18,46,20.70
2015,06,19,18,47,20.70
2015,06,19,18,48,20.70
2015,06,19,18,49,20.70
2015,06,19,18,50,20.70
2015,06,19,18,51,20.70
2015,06,19,18,52,20.70
2015,06,19,18,53,20.70
2015,06,19,18,54,20.60
2015,06,19,18,55,20.60
2015,06,19,18,56,20.50
2015,06,19,18,57,20.50
2015,06,19,18,58,20.50
2015,06,19,18,59,20.60
2015,06,19,19,00,20.50
2015,06,19,19,01,20.50
2015,06,19,19,02,20.40
2015,06,19,19,03,20.30
2015,06,19,19,04,20.30
2015,06,19,19,05,20.20
2015,06,19,19,06,20.20
2015,06,19,19,07,20.20
2015,06,19,19,08,20.20
2015,06,19,19,09,20.30
2015,06,19,19,10,20.40
2015,06,19,19,11,20.40
2015,06,19,19,12,20.40
2015,06,19,19,13,20.50
2015,06,19,19,14,20.50
2015,06,19,19,15,20.50
2015,06,19,19,16,20.50
2015,06,19,19,17,20.60
2015,06,19,19,18,20.60
2015,06,19,19,19,20.60
2015,06,19,19,20,20.50
2015,06,19,19,21,20.50
2015,06,19,19,22,20.50
2015,06,19,19,23,20.50
2015,06,19,19,24,20.50
2015,06,19,19,25,20.50
2015,06,19,19,26,20.50
2015,06,19,19,27,20.50
2015,06,19,19,28,20.50
2015,06,19,19,29,20.50
2015,06,19,19,30,20.50
2015,06,19,19,31,20.60
2015,06,19,19,32,20.60
2015,06,19,19,33,20.60
2015,06,19,19,34,20.60
2015,06,19,19,35,20.60
2015,06,19,19,36,20.60
2015,06,19,19,37,20.60
2015,06,19,19,38,20.50
2015,06,19,19,39,20.50
2015,06,19,19,40,20.50
2015,06,19,19,41,20.50
2015,06,19,19,42,20.50
2015,06,19,19,43,20.50
2015,06,19,19,44,20.50
2015,06,19,19,45,20.50
2015,06,19,19,46,20.50
2015,06,19,19,47,20.50
2015,06,19,19,48,20.50
2015,06,19,19,49,20.40
2015,06,19,19,50,20.40
2015,06,19,19,51,20.40
2015,06,19,19,52,20.40
2015,06,19,19,53,20.40
2015,06,19,19,54,20.40
2015,06,19,19,55,20.40
2015,06,19,19,56,20.40